Location: Br�ttisellen
(47.4227°N, 8.6287°E)
Time: 23:17:01
(UTC+00:00)

Cosmos 2278 - Pass Details

Date: 09 April 2020
Orbit: 840 x 852 km, 71.1° (Epoch: 27 May)

Event Time Altitude Azimuth Distance (km) Brightness Sun altitude
Rises 20:22:49 0° 336° (NNW) 3,407 7.9 -21.3°
Reaches altitude 10° 20:25:28 10° 345° (NNW) 2,469 6.9 -21.6°
Maximum altitude 20:30:43 38° 53° (NE) 1,276 4.5 -22.3°
Enters shadow 20:31:54 34° 80° (E) 1,364 4.4 -22.4°
